Wind_Speed
6 5 5 5 5 4 6 8 8 9 8 8 6 4 4 6 6 6 6 6 6 6 6 6 5 5 5 5 5 5 5 5 5 6 6 7 7 7 7 8 8 8 9 9 9 9 10 10 10
7 4 3 4 4 5 6 9 10 11 13 11 10 6 5 5 5 5 6 6 5 5 6 6 5 5 5 5 5 5 5 5 6 6 7 7 8 8 8 8 8 8 8 9 9 9 9 9 9
8 5 3 3 1 3 6 9 12 14 15 15 14 11 8 7 6 6 6 7 6 6 6 6 5 6 6 6 6 6 6 6 7 8 8 9 9 9 9 9 9 9 9 9 9 10 9 9 9
9 7 3 1 3 3 5 9 14 16 17 18 18 15 10 8 8 8 7 7 6 6 6 6 6 6 6 6 7 7 7 8 8 9 9 10 10 10 10 10 10 11 11 11 11 11 11 10 10
10 8 5 4 6 5 5 8 13 17 20 21 20 17 13 10 10 9 8 7 6 6 6 6 6 7 8 8 9 10 10 10 10 10 10 11 11 11 12 12 12 13 13 13 13 13 13 13 12
12 9 5 4 6 5 3 8 14 19 22 22 21 18 15 11 9 9 8 7 6 6 6 7 8 9 10 11 12 12 12 12 12 13 13 13 13 14 14 14 15 15 15 15 15 15 15 15 15
14 9 4 6 7 4 3 9 16 20 23 24 22 19 17 13 11 10 9 7 7 7 7 8 9 10 12 12 12 13 13 14 14 14 15 15 15 16 16 17 17 17 17 17 17 17 18 18 18
16 11 8 12 12 10 9 11 16 21 24 24 23 21 19 16 14 10 9 8 8 8 9 10 11 12 12 13 14 15 15 15 15 16 16 17 17 18 18 18 19 19 19 20 20 20 20 21 21
18 12 13 17 17 15 14 15 19 22 25 25 25 23 20 17 15 12 10 10 10 10 11 12 12 13 14 15 15 16 16 17 17 18 18 18 19 19 20 20 21 21 22 22 23 23 23 23 23
19 15 18 21 21 20 18 17 20 23 25 25 25 23 22 20 19 16 14 13 13 13 14 14 14 14 15 16 17 18 18 19 20 21 21 21 22 22 23 23 23 24 25 25 25 25 25 25 26
21 18 21 23 24 23 21 21 22 25 26 27 27 26 24 23 22 20 18 17 15 15 16 18 17 17 18 19 20 21 21 22 23 23 24 24 25 26 26 27 26 27 28 28 27 27 26 27 28
22 21 23 25 26 25 24 24 25 27 28 30 30 29 27 26 25 24 22 20 19 19 20 22 21 21 21 23 23 24 24 25 26 26 27 27 28 28 29 30 29 29 29 30 30 30 28 27 28
22 22 23 25 27 26 25 26 27 28 29 30 30 29 28 28 27 26 25 23 23 23 23 24 23 24 25 26 26 26 27 27 28 29 29 30 30 31 32 31 31 31 30 31 32 31 29 28 28
19 20 21 22 24 24 24 24 25 26 26 28 29 28 27 27 25 25 24 25 26 26 25 25 26 27 28 29 28 29 29 30 31 32 32 32 32 33 33 33 34 33 32 32 31 30 30 29 29
16 17 18 18 19 20 21 23 22 22 23 24 25 25 25 25 25 25 26 26 26 27 27 27 27 29 30 30 31 32 33 34 35 35 35 35 35 35 34 35 35 34 34 33 32 30 29 28 29
12 14 14 15 16 18 20 21 20 19 19 20 21 23 23 24 24 24 25 25 26 26 27 27 28 29 29 30 31 33 34 36 37 37 37 37 37 36 36 36 36 36 36 35 33 32 31 29 29
8 10 11 13 14 16 18 20 20 18 18 19 20 21 21 21 22 22 23 24 25 25 26 27 28 29 30 31 33 35 36 38 39 39 39 39 39 38 39 38 38 37 36 35 34 33 31 30 29
7 8 9 11 13 16 19 21 22 21 19 18 17 17 16 17 18 20 21 23 24 25 26 27 29 30 32 33 35 37 38 39 40 41 41 40 41 41 40 40 39 38 37 36 36 34 33 32 31
6 8 9 9 12 17 19 21 22 21 19 16 14 13 14 14 15 17 19 21 23 24 25 27 29 30 32 34 35 37 38 40 40 41 41 41 42 41 41 41 40 39 39 38 37 36 35 34 33
6 7 8 7 7 11 15 19 18 19 16 13 12 11 11 11 13 15 18 19 21 22 24 26 28 30 32 34 36 37 39 40 41 41 42 42 42 41 41 40 40 40 40 40 39 38 36 36 36
7 9 9 9 10 12 14 16 16 17 14 10 9 9 8 10 12 14 16 18 19 21 23 25 27 30 32 34 36 37 39 40 40 41 41 41 41 41 41 40 40 40 40 40 40 39 38 36 36
8 10 10 11 13 15 17 15 13 11 5 5 5 5 5 7 10 12 15 17 19 20 22 24 26 29 31 33 35 37 38 38 39 39 39 39 39 39 39 39 38 38 38 38 39 39 38 37 36
8 9 9 10 12 14 14 13 10 7 5 2 1 2 5 8 10 12 14 17 18 20 22 24 25 27 29 30 32 34 36 37 38 38 39 39 38 38 37 36 35 34 34 34 35 36 36 36 36
8 7 8 10 11 13 14 12 10 8 7 7 6 7 9 11 12 15 17 19 21 22 25 26 27 28 29 31 32 33 34 35 36 37 37 37 37 37 36 35 34 33 33 32 32 32 33 34 35
7 7 7 8 10 12 13 12 12 10 8 8 9 11 13 15 17 19 21 23 25 27 29 30 32 32 33 33 34 35 35 35 35 36 37 37 37 37 36 35 34 33 33 33 32 32 32 32 33
6 7 8 8 9 9 10 10 11 12 10 9 12 14 16 19 21 23 26 28 30 31 33 34 35 35 35 35 36 36 36 36 36 37 37 38 37 37 37 36 35 35 35 34 34 33 34 34 34
6 8 9 9 9 9 9 9 11 12 11 12 15 17 20 22 25 27 29 31 33 34 36 37 37 37 37 37 37 37 37 38 38 38 39 38 38 38 38 38 38 37 37 37 36 36 36 36 36
8 9 9 8 9 10 10 11 13 14 15 16 18 21 23 25 27 29 31 33 35 36 38 39 39 39 39 38 38 38 38 39 39 39 39 39 39 39 39 39 39 39 39 39 39 38 38 38 38
8 9 10 10 11 12 14 15 15 16 17 19 21 24 26 27 29 30 32 34 36 38 39 40 40 40 39 39 39 39 39 39 39 39 39 39 39 39 39 39 39 40 40 41 41 41 42 41 41
8 9 10 11 12 14 16 17 18 19 20 22 24 26 27 28 29 31 33 35 37 39 40 40 40 40 40 40 40 40 40 40 40 39 39 39 39 39 39 40 40 41 41 42 43 44 44 45 44
Wind_Direction
35 61 77 71 47 5 351 6 4 350 353 357 345 334 348 354 350 338 339 342 346 358 355 342 329 322 316 312 309 311 319 329 338 343 346 348 347 347 349 351 351 351 354 357 359 357 358 360 0
2 16 52 55 25 352 358 14 0 349 344 342 334 327 339 344 336 326 327 329 343 354 346 332 323 314 308 302 300 304 311 319 326 329 331 332 332 330 330 332 333 334 336 338 340 340 342 344 347
341 344 10 52 14 355 4 1 349 340 334 328 328 327 332 330 317 314 320 327 336 337 331 323 317 311 306 300 299 305 309 314 319 322 323 323 322 321 320 320 320 320 322 322 322 323 323 326 329
325 327 328 260 278 326 346 341 329 324 320 318 321 322 324 322 317 318 324 329 330 328 323 317 310 304 302 299 297 301 304 307 311 315 315 314 312 310 310 310 309 309 309 309 309 307 307 307 309
312 312 301 279 288 298 322 321 311 306 306 310 314 315 316 321 320 318 318 319 321 317 310 308 302 298 298 300 300 300 302 302 304 305 304 303 302 300 299 299 299 300 299 298 296 295 294 293 293
302 303 289 276 267 277 290 295 295 295 297 301 308 311 312 314 310 306 307 310 312 310 298 294 293 292 293 295 296 298 298 299 300 300 298 296 297 297 296 294 293 292 293 291 288 285 284 284 283
294 291 246 207 208 217 244 276 281 285 291 297 302 306 307 306 304 296 298 300 301 300 297 290 288 290 291 293 294 296 296 297 297 298 297 296 296 296 297 295 292 291 289 289 286 280 277 276 277
288 276 220 201 206 211 229 251 269 278 285 291 297 301 296 297 297 287 293 293 291 290 290 289 288 291 293 293 293 295 295 297 299 299 298 299 298 297 297 297 294 292 291 289 286 281 275 272 271
281 261 220 208 212 222 236 248 263 272 279 286 293 298 298 294 292 290 291 286 285 286 288 291 290 293 294 295 295 296 297 299 300 299 299 299 298 297 296 295 295 294 292 290 286 283 276 272 269
272 248 221 220 222 228 240 250 262 269 275 281 288 291 294 292 289 287 288 283 284 286 289 290 287 291 294 295 296 297 298 298 299 298 296 298 298 295 293 295 295 295 293 290 285 282 279 272 269
261 240 223 221 224 232 239 248 258 266 272 279 283 285 288 288 287 285 286 281 280 281 286 288 288 289 291 291 293 294 295 296 297 297 295 296 297 295 294 292 293 294 293 290 285 282 280 276 271
252 237 225 222 226 232 239 248 255 261 269 275 280 284 285 286 287 289 286 283 279 280 280 283 286 285 286 288 289 291 294 294 295 296 296 296 296 294 293 289 289 290 290 288 288 288 285 281 275
246 236 227 224 227 233 241 249 255 261 268 274 278 282 282 284 285 287 284 281 281 280 278 280 284 284 284 284 285 288 290 290 290 292 292 292 293 292 294 292 290 290 288 289 288 288 286 285 281
239 230 222 224 227 235 241 248 256 264 272 275 277 280 283 285 287 287 283 285 285 284 284 284 284 285 284 285 287 289 289 289 290 289 290 290 291 291 291 291 290 290 288 288 287 285 284 283 282
230 224 220 222 226 237 245 250 256 266 273 275 277 280 285 286 285 285 285 286 287 287 287 286 286 286 284 285 287 288 290 290 290 290 291 292 291 290 290 290 290 288 288 286 284 282 282 280 278
213 215 212 221 229 236 244 251 259 267 272 275 278 280 283 285 286 286 287 288 288 287 287 287 287 287 286 287 288 290 290 290 291 292 292 292 292 292 291 289 287 286 286 285 282 279 279 278 277
206 217 217 225 235 238 246 254 261 263 267 272 276 279 280 282 284 286 287 289 289 288 287 287 286 287 287 288 289 290 290 291 291 292 292 292 291 291 291 289 287 285 283 282 281 278 276 276 274
217 231 238 243 241 241 250 254 257 255 260 267 272 278 280 282 283 285 287 289 290 291 291 291 290 289 289 289 289 289 289 290 290 291 291 291 290 290 289 288 285 284 281 279 279 277 275 274 272
256 258 259 252 246 244 250 252 258 255 260 260 269 278 281 285 288 290 292 292 293 294 295 294 294 293 292 291 290 290 290 291 291 291 291 290 289 288 287 286 284 282 280 278 277 275 274 273 271
293 295 291 283 275 275 270 266 270 272 267 265 266 274 280 289 294 297 298 297 298 299 299 299 297 296 294 293 293 293 292 292 292 291 290 289 288 287 285 283 281 281 279 277 275 273 271 271 270
339 333 322 316 314 313 306 302 300 295 271 257 263 277 283 293 300 302 302 302 303 303 303 302 300 298 297 296 295 294 294 293 292 291 291 290 288 286 284 282 280 278 277 276 274 272 269 267 266
359 355 345 338 336 339 335 333 325 320 298 256 255 280 302 310 311 311 311 311 310 310 308 306 304 301 299 298 297 297 296 295 294 293 292 291 290 288 286 284 281 278 276 273 272 270 268 265 263
6 2 351 345 346 347 349 354 7 23 50 67 22 345 341 335 328 323 320 317 315 313 312 310 308 305 302 300 299 298 297 296 295 294 293 292 290 288 286 284 282 279 277 274 271 268 266 263 261
355 354 351 353 352 354 1 12 26 41 46 46 30 9 355 345 337 332 328 325 323 321 319 318 317 314 311 308 306 303 301 299 298 296 295 294 293 290 288 285 282 280 277 275 271 269 266 263 260
346 345 344 350 356 6 18 37 38 38 33 25 10 359 352 347 342 338 335 333 331 329 327 325 323 321 318 315 312 310 307 305 302 300 298 296 294 291 289 286 283 280 277 274 270 267 266 264 261
345 339 339 341 347 359 14 27 19 17 15 8 358 353 349 347 344 341 338 336 333 331 329 328 326 323 321 318 316 313 310 307 305 303 300 297 294 291 289 287 284 281 278 275 271 267 265 264 261
343 337 339 339 339 336 344 355 352 3 6 1 354 349 348 346 343 340 337 335 333 331 329 327 325 323 321 319 317 314 311 308 306 304 301 298 295 291 288 286 284 281 279 276 273 269 265 263 261
340 343 340 337 333 333 336 341 349 359 359 354 349 347 346 343 340 337 335 333 332 330 328 327 325 324 322 320 317 314 312 309 307 304 301 298 295 292 288 286 284 282 279 276 274 270 266 263 261
327 333 337 341 338 333 333 341 353 359 356 350 347 345 342 339 336 334 333 331 330 329 328 327 326 325 323 321 319 316 314 311 308 305 302 299 296 293 290 287 285 282 280 277 274 271 268 265 262
334 338 341 341 338 334 334 340 350 354 351 347 344 340 336 334 332 331 330 330 329 329 328 327 327 326 325 323 321 318 316 314 311 308 305 302 299 296 292 289 287 284 282 278 275 272 269 266 263
Height
5933 5932 5932 5932 5932 5931 5930 5929 5928 5928 5928 5929 5929 5928 5927 5927 5927 5928 5925 5923 5922 5921 5921 5920 5920 5920 5920 5919 5919 5918 5918 5917 5917 5916 5916 5915 5915 5914 5914 5913 5912 5911 5910 5910 5909 5908 5907 5906 5905
5933 5932 5932 5931 5931 5930 5929 5928 5927 5926 5926 5927 5927 5926 5926 5925 5925 5924 5923 5922 5921 5920 5920 5920 5919 5919 5919 5919 5918 5918 5917 5917 5916 5915 5915 5914 5914 5913 5913 5912 5911 5911 5910 5909 5908 5907 5906 5906 5905
5932 5931 5931 5930 5929 5928 5928 5927 5926 5925 5924 5925 5925 5925 5925 5925 5923 5922 5921 5920 5920 5919 5919 5919 5919 5918 5918 5918 5918 5917 5916 5916 5915 5914 5914 5913 5913 5912 5911 5911 5910 5909 5909 5908 5907 5906 5905 5905 5904
5932 5930 5930 5930 5928 5927 5925 5925 5925 5924 5924 5924 5924 5924 5924 5923 5921 5920 5919 5919 5918 5918 5918 5918 5918 5917 5917 5917 5916 5916 5915 5915 5914 5913 5912 5912 5911 5910 5910 5909 5908 5907 5907 5906 5905 5905 5904 5903 5903
5930 5930 5929 5928 5926 5924 5923 5922 5922 5922 5922 5922 5922 5922 5922 5921 5919 5918 5918 5917 5917 5917 5917 5917 5917 5916 5916 5915 5915 5914 5913 5913 5912 5911 5910 5909 5908 5908 5907 5906 5906 5905 5904 5904 5903 5902 5902 5901 5901
5929 5929 5928 5927 5924 5921 5921 5920 5920 5920 5919 5919 5920 5920 5919 5919 5917 5916 5916 5915 5915 5915 5915 5915 5915 5915 5914 5913 5913 5912 5911 5910 5909 5908 5907 5906 5906 5905 5904 5903 5902 5902 5901 5900 5900 5899 5898 5898 5898
5928 5927 5927 5925 5921 5918 5918 5918 5917 5917 5917 5917 5918 5918 5917 5917 5916 5915 5913 5913 5913 5913 5913 5913 5913 5912 5911 5911 5910 5909 5908 5907 5906 5905 5904 5903 5902 5901 5900 5899 5898 5898 5897 5896 5896 5895 5894 5894 5894
5924 5925 5923 5921 5918 5915 5914 5914 5914 5914 5914 5915 5915 5915 5914 5914 5914 5913 5911 5911 5911 5911 5911 5910 5910 5909 5908 5907 5906 5905 5905 5904 5903 5901 5900 5899 5898 5897 5896 5895 5894 5893 5892 5892 5891 5890 5889 5889 5889
5919 5921 5919 5916 5914 5912 5911 5911 5911 5911 5911 5911 5911 5911 5911 5910 5910 5911 5910 5909 5909 5909 5908 5907 5906 5906 5905 5904 5903 5902 5901 5900 5899 5898 5896 5895 5894 5892 5891 5890 5889 5888 5887 5886 5885 5884 5884 5883 5883
5914 5915 5915 5912 5911 5909 5907 5908 5907 5907 5907 5907 5908 5908 5907 5907 5906 5907 5908 5907 5906 5906 5905 5904 5903 5902 5901 5900 5899 5898 5897 5896 5894 5893 5892 5890 5889 5888 5886 5885 5883 5882 5881 5880 5879 5878 5877 5877 5877
5907 5909 5909 5907 5906 5905 5904 5904 5904 5903 5904 5904 5904 5904 5903 5902 5902 5902 5903 5903 5903 5902 5901 5900 5899 5898 5897 5895 5894 5893 5892 5891 5889 5888 5887 5885 5884 5882 5880 5879 5877 5876 5874 5873 5871 5870 5870 5869 5869
5901 5902 5902 5902 5901 5901 5900 5900 5901 5900 5900 5900 5899 5899 5898 5898 5897 5896 5896 5897 5898 5898 5897 5895 5894 5893 5892 5890 5889 5887 5886 5885 5884 5883 5881 5880 5878 5876 5874 5872 5870 5869 5867 5865 5864 5863 5862 5862 5861
5893 5894 5895 5895 5896 5896 5896 5897 5897 5896 5896 5896 5895 5894 5893 5892 5891 5891 5890 5890 5890 5891 5891 5890 5889 5888 5886 5884 5882 5881 5880 5879 5878 5876 5875 5873 5871 5869 5867 5864 5863 5862 5860 5858 5857 5856 5855 5854 5853
5887 5888 5889 5890 5891 5891 5892 5893 5893 5892 5892 5891 5890 5889 5888 5887 5887 5886 5885 5885 5884 5884 5884 5883 5882 5881 5879 5877 5875 5874 5873 5871 5870 5869 5867 5866 5864 5862 5860 5858 5856 5854 5852 5851 5850 5849 5848 5847 5846
5882 5884 5885 5886 5886 5887 5888 5888 5888 5887 5887 5886 5886 5885 5884 5883 5882 5882 5881 5880 5879 5879 5878 5877 5875 5874 5872 5870 5868 5867 5865 5864 5862 5861 5859 5857 5855 5853 5852 5850 5848 5845 5844 5843 5842 5842 5841 5840 5839
5879 5881 5882 5882 5883 5883 5885 5884 5885 5884 5884 5883 5882 5881 5880 5879 5878 5877 5876 5876 5875 5873 5872 5871 5869 5868 5865 5862 5860 5858 5858 5855 5853 5852 5850 5848 5846 5844 5843 5841 5839 5837 5836 5834 5834 5833 5833 5832 5831
5877 5878 5878 5879 5879 5880 5880 5880 5881 5881 5880 5880 5879 5878 5876 5876 5874 5873 5872 5871 5870 5868 5866 5865 5863 5861 5859 5857 5854 5852 5850 5848 5845 5843 5841 5839 5837 5835 5833 5832 5830 5828 5827 5826 5825 5825 5824 5824 5823
5875 5875 5875 5875 5875 5875 5875 5875 5875 5875 5875 5875 5874 5874 5873 5872 5871 5869 5868 5866 5865 5863 5861 5859 5857 5855 5853 5850 5848 5845 5842 5840 5837 5835 5832 5830 5828 5825 5823 5821 5820 5819 5817 5817 5816 5815 5815 5815 5815
5873 5873 5872 5872 5871 5871 5870 5869 5869 5869 5870 5871 5871 5870 5870 5869 5867 5866 5864 5862 5860 5858 5856 5853 5851 5848 5845 5843 5840 5837 5834 5831 5828 5825 5823 5820 5818 5816 5814 5811 5810 5808 5807 5807 5806 5806 5806 5806 5806
5871 5871 5871 5869 5869 5869 5867 5866 5864 5864 5864 5867 5867 5867 5866 5865 5864 5862 5860 5858 5856 5854 5851 5848 5845 5841 5838 5835 5831 5828 5825 5822 5819 5816 5813 5810 5808 5805 5803 5801 5799 5798 5796 5796 5795 5796 5796 5797 5796
5869 5869 5868 5868 5868 5867 5865 5862 5861 5860 5859 5862 5864 5863 5863 5862 5861 5859 5857 5855 5852 5849 5846 5843 5839 5835 5831 5827 5823 5819 5816 5812 5809 5806 5803 5799 5797 5794 5792 5790 5789 5787 5786 5785 5784 5784 5785 5786 5787
5870 5868 5867 5867 5867 5865 5863 5860 5859 5857 5857 5859 5861 5861 5860 5859 5858 5856 5853 5851 5848 5845 5841 5838 5833 5829 5824 5820 5815 5811 5807 5803 5799 5795 5792 5789 5786 5783 5781 5779 5777 5776 5775 5774 5773 5773 5773 5775 5776
5869 5868 5868 5867 5865 5864 5862 5861 5860 5857 5857 5858 5859 5859 5858 5856 5854 5852 5850 5847 5844 5840 5836 5832 5828 5823 5818 5813 5808 5803 5798 5794 5790 5785 5782 5779 5776 5772 5770 5768 5766 5765 5764 5763 5762 5762 5762 5763 5765
5868 5868 5867 5866 5865 5864 5862 5861 5859 5858 5858 5858 5857 5856 5854 5852 5850 5848 5845 5842 5838 5834 5829 5825 5820 5815 5810 5805 5799 5794 5790 5785 5780 5776 5772 5768 5765 5762 5759 5757 5756 5754 5753 5753 5752 5752 5752 5752 5754
5868 5868 5867 5866 5864 5863 5862 5860 5860 5858 5857 5857 5855 5853 5851 5848 5846 5843 5839 5835 5831 5826 5822 5816 5811 5806 5801 5795 5790 5785 5780 5775 5771 5766 5762 5758 5755 5752 5749 5747 5745 5744 5743 5742 5742 5742 5742 5742 5743
5868 5867 5867 5865 5863 5862 5861 5860 5860 5858 5856 5854 5852 5850 5847 5844 5841 5837 5833 5829 5824 5819 5814 5809 5804 5798 5792 5787 5781 5776 5771 5766 5761 5757 5752 5748 5744 5741 5738 5736 5734 5733 5732 5731 5731 5732 5732 5732 5733
5868 5866 5865 5864 5862 5861 5859 5859 5858 5856 5854 5851 5849 5846 5843 5839 5836 5832 5828 5823 5819 5813 5808 5802 5797 5791 5785 5779 5773 5767 5762 5757 5752 5747 5742 5738 5734 5730 5727 5725 5723 5721 5720 5719 5719 5720 5720 5721 5722
5867 5866 5865 5863 5860 5858 5857 5856 5855 5853 5851 5848 5845 5841 5838 5835 5831 5827 5823 5818 5813 5808 5802 5796 5790 5784 5777 5771 5765 5759 5753 5748 5742 5737 5732 5727 5723 5719 5716 5713 5711 5709 5708 5707 5707 5707 5708 5709 5710
5866 5865 5862 5860 5858 5856 5854 5855 5852 5850 5847 5844 5840 5837 5834 5831 5827 5823 5819 5814 5809 5803 5796 5790 5783 5776 5770 5763 5757 5751 5744 5738 5732 5727 5721 5716 5712 5708 5704 5701 5699 5696 5695 5694 5693 5693 5694 5695 5697
5863 5862 5860 5859 5857 5854 5852 5854 5849 5846 5843 5840 5837 5834 5831 5828 5824 5820 5815 5810 5804 5797 5790 5783 5776 5769 5762 5756 5749 5742 5735 5729 5722 5716 5710 5705 5700 5696 5692 5689 5686 5683 5681 5680 5679 5679 5679 5680 5682